Mount Sterling, KY

4:06 AM EDT on May 30, 2017 (GMT -0400)
Mount Sterling-Montgomery County

Weather History for KIOB - March, 2014

Change the Weather History Date:

Monday, March 10, 2014

  Actual Average Record
Temperature  
Mean Temperature 48 °F -  
Max Temperature 62 °F 56 °F 71 °F (2016)
Min Temperature 35 °F 34 °F 32 °F (2017)
Degree Days  
Heating Degree Days 16    
Moisture  
Dew Point 35 °F    
Average Humidity 61    
Maximum Humidity 87    
Minimum Humidity 37    
Precipitation  
Precipitation 0.00 in - - ()
Sea Level Pressure  
Sea Level Pressure 29.94 in    
Wind  
Wind Speed 10 mph (WSW)    
Max Wind Speed 18 mph    
Max Gust Speed 26 mph    
Visibility 10 miles    
Events      
Averages and records for this station are not official NWS values.
T = Trace of Precipitation, MM = Missing Value Source: NWS Daily Summary

Daily Weather History Graph

Daily Weather History Graph

Search for Another Location

Airport or City:

Trip Planner

Search our weather history database for the weather conditions in past years. The results will help you decide how hot, cold, wet, or windy it might be!

Date:

Astronomy

Mar. 10, 2014 Rise Set
Actual Time 7:54 AM EDT 7:38 PM EDT
Civil Twilight 7:28 AM EDT 8:04 PM EDT
Nautical Twilight 6:57 AM EDT 8:35 PM EDT
Astronomical Twilight 6:27 AM EDT 9:05 PM EDT
Moon 2:24 PM EDT (3/10) 4:01 AM EDT (3/10)
Length of Visible Light 12h 36m
Length of Day
11h 43m
Waxing Gibbous, 70% of the Moon is Illuminated
Mar 10
Waxing Gibbous
Mar 16
Full
Mar 23
Last Quarter
Mar 30
New
Apr 7
First Quarter

Hourly Weather History & Observations

Time (EDT) Temp. Windchill Dew Point Humidity Pressure Visibility Wind Dir Wind Speed Gust Speed Precip Events Conditions
12:15 AM 39.2 °F 34.2 °F 28.4 °F 65% 30.06 in 10.0 mi WSW 6.9 mph - N/A   Clear
12:35 AM 39.2 °F 33.6 °F 30.2 °F 70% 30.06 in 10.0 mi WSW 8.1 mph - N/A   Clear
12:55 AM 41.0 °F 34.3 °F 28.4 °F 61% 30.05 in 10.0 mi West 11.5 mph - N/A   Clear
1:15 AM 41.0 °F 35.8 °F 28.4 °F 61% 30.05 in 10.0 mi West 8.1 mph - N/A   Clear
1:35 AM 39.2 °F 33.6 °F 28.4 °F 65% 30.05 in 10.0 mi WSW 8.1 mph - N/A   Clear
1:55 AM 39.2 °F 33.6 °F 28.4 °F 65% 30.05 in 10.0 mi West 8.1 mph - N/A   Clear
2:15 AM 37.4 °F 31.4 °F 28.4 °F 70% 30.05 in 10.0 mi WSW 8.1 mph - N/A   Clear
2:35 AM 37.4 °F 30.8 °F 30.2 °F 75% 30.05 in 10.0 mi WSW 9.2 mph - N/A   Clear
2:55 AM 37.4 °F 32.1 °F 28.4 °F 70% 30.04 in 10.0 mi WSW 6.9 mph - N/A   Clear
3:15 AM 37.4 °F 30.3 °F 28.4 °F 70% 30.04 in 10.0 mi WSW 10.4 mph - N/A   Clear
3:35 AM 37.4 °F 30.3 °F 28.4 °F 70% 30.03 in 10.0 mi WSW 10.4 mph - N/A   Clear
3:55 AM 37.4 °F 30.3 °F 28.4 °F 70% 30.03 in 10.0 mi WSW 10.4 mph - N/A   Clear
4:15 AM 37.4 °F 30.3 °F 28.4 °F 70% 30.02 in - WSW 10.4 mph - N/A   Clear
4:35 AM 37.4 °F 31.4 °F 28.4 °F 70% 30.02 in - WSW 8.1 mph - N/A   Clear
4:50 AM 35.6 °F 29.2 °F 28.4 °F 75% 30.02 in 10.0 mi WSW 8.1 mph - N/A   Clear
5:15 AM 35.6 °F 29.2 °F 30.2 °F 81% 30.01 in 10.0 mi WSW 8.1 mph - N/A   Clear
5:35 AM 35.6 °F 29.2 °F 30.2 °F 81% 30.01 in 10.0 mi WSW 8.1 mph - N/A   Clear
5:55 AM 35.6 °F 29.2 °F 30.2 °F 81% 30.01 in 10.0 mi WSW 8.1 mph - N/A   Clear
6:15 AM 35.6 °F 28.6 °F 30.2 °F 81% 30.00 in 10.0 mi WSW 9.2 mph - N/A   Clear
6:35 AM 35.6 °F 29.2 °F 30.2 °F 81% 30.00 in 10.0 mi WSW 8.1 mph - N/A   Clear
6:55 AM 35.6 °F 29.2 °F 30.2 °F 81% 30.00 in 10.0 mi WSW 8.1 mph - N/A   Clear
7:15 AM 35.6 °F 28.6 °F 30.2 °F 81% 30.00 in 10.0 mi WSW 9.2 mph - N/A   Clear
7:35 AM 35.6 °F 29.2 °F 30.2 °F 81% 30.01 in 10.0 mi WSW 8.1 mph - N/A   Clear
7:55 AM 35.6 °F 28.6 °F 30.2 °F 81% 30.00 in 10.0 mi WSW 9.2 mph - N/A   Clear
8:15 AM 35.6 °F 28.6 °F 32.0 °F 87% 30.00 in 10.0 mi WSW 9.2 mph - N/A   Clear
8:35 AM 35.6 °F 28.6 °F 32.0 °F 87% 30.00 in 10.0 mi WSW 9.2 mph - N/A   Clear
8:55 AM 37.4 °F 30.8 °F 32.0 °F 81% 30.00 in 10.0 mi SW 9.2 mph - N/A   Clear
9:15 AM 39.2 °F 31.6 °F 33.8 °F 81% 30.00 in 10.0 mi WSW 12.7 mph 17.3 mph N/A   Clear
9:35 AM 41.0 °F 33.5 °F 33.8 °F 76% 30.00 in 10.0 mi WSW 13.8 mph 20.7 mph N/A   Clear
9:55 AM 42.8 °F 37.0 °F 35.6 °F 76% 30.00 in 10.0 mi WSW 10.4 mph 20.7 mph N/A   Clear
10:15 AM 44.6 °F 39.7 °F 35.6 °F 71% 30.00 in 10.0 mi West 9.2 mph 17.3 mph N/A   Clear
10:35 AM 44.6 °F 38.1 °F 37.4 °F 76% 29.99 in 10.0 mi West 13.8 mph 21.9 mph N/A   Clear
10:55 AM 46.4 °F 40.7 °F 37.4 °F 71% 29.98 in 10.0 mi West 12.7 mph 20.7 mph N/A   Clear
11:15 AM 48.2 °F - 39.2 °F 71% 29.98 in 10.0 mi WSW 13.8 mph 21.9 mph N/A   Clear
11:35 AM 50.0 °F - 41.0 °F 71% 29.98 in 10.0 mi WSW 15.0 mph 20.7 mph N/A   Clear
11:55 AM 51.8 °F - 41.0 °F 67% 29.98 in 10.0 mi West 10.4 mph 18.4 mph N/A   Clear
12:15 PM 53.6 °F - 41.0 °F 62% 29.97 in 10.0 mi West 15.0 mph 21.9 mph N/A   Clear
12:35 PM 53.6 °F - 41.0 °F 62% 29.97 in 10.0 mi WSW 16.1 mph 21.9 mph N/A   Clear
12:55 PM 55.4 °F - 41.0 °F 58% 29.96 in 10.0 mi West 16.1 mph 21.9 mph N/A   Clear
1:15 PM 55.4 °F - 41.0 °F 58% 29.95 in 10.0 mi West 12.7 mph 20.7 mph N/A   Clear
1:35 PM 55.4 °F - 41.0 °F 58% 29.93 in 10.0 mi West 13.8 mph 24.2 mph N/A   Clear
1:55 PM 59.0 °F - 41.0 °F 51% 29.92 in 10.0 mi West 15.0 mph 21.9 mph N/A   Clear
2:15 PM 59.0 °F - 41.0 °F 51% 29.91 in 10.0 mi West 18.4 mph 26.5 mph N/A   Clear
2:35 PM 59.0 °F - 41.0 °F 51% 29.91 in 10.0 mi West 12.7 mph 25.3 mph N/A   Clear
2:55 PM 59.0 °F - 41.0 °F 51% 29.90 in 10.0 mi WSW 13.8 mph 20.7 mph N/A   Clear
3:15 PM 59.0 °F - 41.0 °F 51% 29.89 in 10.0 mi WSW 13.8 mph 19.6 mph N/A   Clear
3:35 PM 60.8 °F - 41.0 °F 48% 29.88 in 10.0 mi WSW 12.7 mph 17.3 mph N/A   Clear
3:55 PM 60.8 °F - 41.0 °F 48% 29.87 in 10.0 mi WSW 15.0 mph 23.0 mph N/A   Clear
4:15 PM 62.6 °F - 41.0 °F 45% 29.86 in 10.0 mi WSW 12.7 mph 21.9 mph N/A   Clear
4:35 PM 62.6 °F - 39.2 °F 42% 29.86 in 10.0 mi West 12.7 mph 21.9 mph N/A   Clear
4:55 PM 62.6 °F - 39.2 °F 42% 29.85 in 10.0 mi WSW 15.0 mph 19.6 mph N/A   Clear
5:15 PM 62.6 °F - 37.4 °F 39% 29.84 in 10.0 mi West 9.2 mph 18.4 mph N/A   Clear
5:35 PM 60.8 °F - 37.4 °F 42% 29.84 in 10.0 mi WSW 9.2 mph 17.3 mph N/A   Clear
5:55 PM 62.6 °F - 37.4 °F 39% 29.83 in 10.0 mi WSW 9.2 mph - N/A   Scattered Clouds
6:15 PM 62.6 °F - 37.4 °F 39% 29.83 in 10.0 mi WSW 9.2 mph - N/A   Scattered Clouds
6:35 PM 62.6 °F - 35.6 °F 37% 29.82 in 10.0 mi WSW 8.1 mph - N/A   Clear
6:55 PM 60.8 °F - 35.6 °F 39% 29.82 in 10.0 mi WSW 9.2 mph - N/A   Clear
7:15 PM 60.8 °F - 35.6 °F 39% 29.82 in 10.0 mi WSW 8.1 mph - N/A   Clear
7:35 PM 59.0 °F - 35.6 °F 42% 29.82 in 10.0 mi WSW 8.1 mph - N/A   Clear
7:55 PM 59.0 °F - 35.6 °F 42% 29.82 in 10.0 mi WSW 6.9 mph - N/A   Clear
8:15 PM 59.0 °F - 33.8 °F 39% 29.82 in 10.0 mi WSW 8.1 mph - N/A   Clear
8:35 PM 59.0 °F - 33.8 °F 39% 29.83 in 10.0 mi WSW 8.1 mph - N/A   Clear
8:55 PM 57.2 °F - 33.8 °F 41% 29.83 in 10.0 mi West 9.2 mph - N/A   Clear
9:15 PM 57.2 °F - 33.8 °F 41% 29.82 in 10.0 mi West 10.4 mph - N/A   Clear
9:35 PM 57.2 °F - 35.6 °F 44% 29.82 in - WSW 9.2 mph 16.1 mph N/A   Clear
9:55 PM 55.4 °F - 35.6 °F 47% 29.82 in 10.0 mi WSW 9.2 mph - N/A   Clear
10:15 PM 55.4 °F - 35.6 °F 47% 29.83 in 10.0 mi WSW 8.1 mph - N/A   Clear
10:35 PM 55.4 °F - 35.6 °F 47% 29.83 in 10.0 mi West 9.2 mph - N/A   Clear
10:55 PM 53.6 °F - 35.6 °F 51% 29.83 in 10.0 mi West 8.1 mph - N/A   Clear
11:15 PM 53.6 °F - 35.6 °F 51% 29.83 in 10.0 mi WSW 8.1 mph - N/A   Clear
11:35 PM 51.8 °F - 35.6 °F 54% 29.83 in 10.0 mi WSW 6.9 mph - N/A   Clear
11:55 PM 51.8 °F - 35.6 °F 54% 29.83 in 10.0 mi WSW 9.2 mph - N/A   Clear